Flag for Canada Weather past 2 weeks in Calgary, Alberta, Canada

Now
50 °F

Scattered clouds.


Feels Like: 45 °F
Forecast: 39 / 58 °F
Wind: 13 mph from West

Location: Calgary International


UV Index: 3 (Moderate)

Visibility: 40 mi


Pressure: 29.99 "Hg

Humidity: 35%

Dew point: 23 °F

Location of CalgaryLocation

Historic Weather in Calgary

°F

Calgary temperature yesterday

Maximum temperature yesterday: 52 °F (at 3:00 PM)
Minimum temperature yesterday: 28 °F (at 7:00 AM)
Average temperature yesterday: 40 °F

Past Weeks' High & Low Weather Summary

 TemperatureHumidityPressure
High66 °F (Apr 8, 3:00 PM)100% (Apr 17, 2:00 AM)30.47 "Hg (Apr 17, 2:00 AM)
Low19 °F (Apr 13, 5:00 AM)11% (Apr 14, 12:00 PM)29.62 "Hg (Apr 9, 12:00 AM)
Average39 °F56%29.96 "Hg
* Reported Apr 5 9:00 AM — Apr 20 9:00 AM, Calgary, Weather by CustomWeather, © 2014

Note: Actual official high and low records may vary slightly from our data, if they occured in-between our weather recording intervals... More about our weather records

Advertising

Historic Weather Conditions — Data for Previous 24 hours

 ConditionsComfort  
Time TempWeatherWind HumidityBarometerVisibility
9:00 AM
Apr 20
46 °FPartly sunny.10 mph43%29.97 "Hg40 mi
8:00 AM45 °FBroken clouds.12 mph46%29.93 "Hg40 mi
7:00 AM39 °FPartly cloudy.8 mph56%29.90 "Hg40 mi
6:00 AM41 °FPassing clouds.8 mph53%29.88 "Hg15 mi
5:00 AM41 °FPassing clouds.12 mph57%29.85 "Hg15 mi
4:00 AM41 °FPassing clouds.7 mph53%29.83 "Hg15 mi
3:00 AM41 °FPassing clouds.15 mph49%29.81 "Hg15 mi
2:00 AM41 °FPassing clouds.5 mph49%29.78 "Hg15 mi
1:00 AM43 °FPassing clouds.5 mph46%29.77 "Hg15 mi
12:00 AM43 °FPassing clouds.10 mph42%29.77 "Hg15 mi
11:00 PM
Apr 19
43 °FPassing clouds.8 mph42%29.80 "Hg15 mi
10:00 PM41 °FPassing clouds.6 mph57%29.80 "Hg15 mi
9:00 PM45 °FScattered clouds.3 mph57%29.78 "Hg20 mi
8:00 PM50 °FPartly sunny.10 mph37%29.75 "Hg30 mi
7:00 PM52 °FMostly cloudy.14 mph35%29.77 "Hg40 mi
6:00 PM52 °FMostly cloudy.12 mph32%29.78 "Hg40 mi
5:00 PM52 °FMore clouds than sun.15 mph32%29.79 "Hg40 mi
4:00 PM52 °FOvercast.9 mph30%29.82 "Hg40 mi
3:00 PM52 °FOvercast.14 mph35%29.83 "Hg40 mi
2:00 PM50 °FPartly sunny.12 mph37%29.86 "Hg40 mi
1:00 PM46 °FPartly sunny.9 mph50%29.89 "Hg40 mi
12:00 PM45 °FPassing clouds.12 mph53%29.91 "Hg40 mi
11:00 AM41 °FScattered clouds.8 mph70%29.93 "Hg40 mi
10:00 AM37 °FPartly sunny.9 mph75%29.96 "Hg40 mi
Weather by CustomWeather, © 2014

See weather overview